Torna al catalogo

STARLINK-37708

AttivoComunicazioniVLEO
NORAD 69469·PAYLOAD·🇺🇸 United States

Lanciato Jun 8, 2026 da Cape Canaveral Space Force Station

Loading…

Prossimi Passaggi (prossime 24 ore)

TLE

AggiornatoSource: CelesTrak SupGP

Epoca: Sep 14, 2026, 23:33 UTC

1 69469C 26127AC  26257.98173611 -.00045368  00000+0 -13401-2 0  2575
2 69469  53.1574 191.5800 0001264  93.3697 274.8210 15.34421307    10

Traccia STARLINK-37708 in tempo reale con AllMySat

Download on the App Store